Starlink 32451

operational
NORAD ID: 61857 Int'l Des: 2024-202 Owner: SPXS Country: US Constellation: starlink
LEOCIRCULAR

About Starlink 32451

Description loading...

Live Position

Loading 3D Globe...

Upcoming Passes

Altitude History

Altitude vs Time

uPlot chart will show altitude changes over time

Two-Line Element Set

1 61857U 24202N 25303.93527635 .00000222 00000-0 17606-4 0 9990
2 61857 43.0022 250.7546 0001834 284.1951 75.8697 15.27578419 55499
Epoch: Oct 30, 2025 • Age: 21 hours

Current Status

Altitude 490.5 km
Velocity 7.62 km/s
Sub-Earth Point -30.04°S, 125.89°E
Launch Date Nov 7, 2024
Age 0.9 years
Type internet

Technical Details

Classification Payload
Mass 730.00 kg
Dry Mass 700.00 kg
Total Mass 730.00 kg
Length 0.30 m
Diameter 4.10 m
Span 29.00 m
Shape Box + pan
Manufacturer SPXS
Bus Type Starlink V2M
Phase Status In Orbit
Owner/State SPXS/US

Large Constellations

Loading constellations...